Simultaneous Nadir Overpasses (SNOs) Predictions

Prediction of SNOs between AQUA and METOP-A Satellite Orbit:

Table of predicted SNOs for the next 14.0 days since TLE Epoch: 3/17/2018
Index Date (AQUA) Time (AQUA) Lat,Lon (AQUA) SZA (AQUA ) Date (METOP-A) Time (METOP-A) Lat,Lon (METOP-A) SZA (METOP-A ) Distance(km) Time Diff (sec)
1 03/17/2018 11:24:33 74.27, 2.31 75.63 03/17/2018 11:23:58 74.26, 2.40 75.62 3.16 35
2 03/17/2018 12:14:00 -74.31, 169.86 104.35 03/17/2018 12:14:39 -74.29, 169.80 104.37 2.83 39
3 03/20/2018 06:58:48 74.25, 68.78 74.49 03/20/2018 06:58:15 74.25, 68.79 74.49 0.92 33
4 03/20/2018 07:48:16 -74.34,-123.78 105.44 03/20/2018 07:48:55 -74.33,-123.67 105.45 3.47 39
5 03/23/2018 02:33:03 74.25, 135.23 73.37 03/23/2018 02:32:32 74.24, 135.17 73.36 2.34 31
6 03/23/2018 03:22:31 -74.33, -57.33 106.56 03/23/2018 03:23:12 -74.33, -57.28 106.58 1.85 41
7 03/25/2018 22:07:18 74.26,-158.35 72.26 03/25/2018 22:06:48 74.27,-158.33 72.28 1.76 30
8 03/25/2018 22:56:46 -74.34, 9.10 107.67 03/25/2018 22:57:29 -74.32, 9.12 107.70 2.30 43
9 03/28/2018 17:41:32 74.27, -91.95 71.16 03/28/2018 17:41:04 74.25, -91.96 71.15 1.96 28
10 03/28/2018 18:30:59 -74.30, 75.62 108.82 03/28/2018 18:31:45 -74.31, 75.50 108.82 3.70 46




NCC Satellite Simultaneous Nadir Overpasses (SNOs) Prediction Service
